This is the latest recevied weather packets stored in our database for station/object DL4NBA-1. If no packets are shown the sender has not sent any weather packets the latest 10 day(s).
| Time | Temp. | Humidity | Pressure | Rain* | Wind** | Luminosity | Snow |
|---|---|---|---|---|---|---|---|
| 1778081740 | 17.22° C | - | - | 0 mm | 4.02 m/s, 104° | - | - |
| 1778081143 | 18.89° C | - | - | 0 mm | 2.24 m/s, 129° | - | - |
| 1778080542 | 20° C | - | - | 0 mm | 1.34 m/s, 107° | - | - |
| 1778079945 | 20.56° C | - | - | 0 mm | 1.79 m/s, 142° | - | - |
| 1778079646 | 20° C | - | - | 0 mm | 1.79 m/s, 129° | - | - |
| 1778079347 | 19.44° C | - | - | 0 mm | 0.89 m/s, 118° | - | - |
| 1778078746 | 18.89° C | - | - | 0 mm | 1.79 m/s, 129° | - | - |
| 1778078447 | 19.44° C | - | - | 0 mm | 2.24 m/s, 136° | - | - |
| 1778078148 | 19.44° C | - | - | 0 mm | 3.13 m/s, 150° | - | - |
| 1778076949 | 18.89° C | - | - | 0 mm | 2.24 m/s, 297° | - | - |
| 1778076349 | 19.44° C | - | - | 0 mm | 3.13 m/s, 291° | - | - |
| 1778076048 | 20.56° C | - | - | 0 mm | 3.13 m/s, 316° | - | - |
| 1778075449 | 21.11° C | - | - | 0 mm | 1.79 m/s, 245° | - | - |
| 1778075149 | 21.67° C | - | - | 0 mm | 1.34 m/s, 340° | - | - |
| 1778074549 | 20.56° C | - | - | 0 mm | 0.89 m/s, 176° | - | - |
| 1778073948 | 20.56° C | - | - | 0 mm | 1.79 m/s, 285° | - | - |
| 1778073649 | 20.56° C | - | - | 0 mm | 2.68 m/s, 340° | - | - |
| 1778073350 | 22.22° C | - | - | 0 mm | 0 m/s | - | - |
| 1778073048 | 22.78° C | - | - | 0 mm | 0.45 m/s, 252° | - | - |
| 1778072747 | 22.78° C | - | - | 0 mm | 0.45 m/s, 239° | - | - |
| 1778072448 | 21.67° C | - | - | 0 mm | 1.34 m/s, 205° | - | - |
| 1778072149 | 21.11° C | - | - | 0 mm | 1.34 m/s, 228° | - | - |
| 1778071851 | 20.56° C | - | - | 0 mm | 0.89 m/s, 240° | - | - |
| 1778071548 | 20.56° C | - | - | 0 mm | 0.89 m/s, 145° | - | - |
| 1778070649 | 21.11° C | - | - | 0 mm | 2.68 m/s, 222° | - | - |
* Rain latest hour (hover to see other rain measurements)
** Current wind speed in m/s (hover to see current wind gust speed)